Regional Weather Roundup
Issued by NWS Goodland, KS

Home | Current Version | Previous Version | Graphics & Text | Print | Product List | Glossary On
Versions: 1 2 3 4 5 6 7 8 9 10 11 12 13 14 15 16 17 18 19 20 21 22 23 24 25 26 27 28 29 30 31 32 33 34 35 36 37 38 39 40 41 42 43 44 45 46 47 48 49 50
000
ASUS43 KGLD 231059
RWRGLD

GOODLAND FORECAST AREA HOURLY WEATHER ROUNDUP
NATIONAL WEATHER SERVICE GOODLAND KS
500 AM MDT THU OCT 23 2014

...OFFICIAL OBSERVATIONS...

CITY           SKY/WX    TMP DP  RH WIND       PRES   REMARKS
GOODLAND KS    CLEAR     42  40  92 W5        30.12S
HILL CITY KS   FOG       49  48  97 NW7       30.09R VSB 1/4
IMPERIAL NEB   CLEAR     39  31  72 W5        30.10F
MCCOOK NEB     FOG       45  45 100 SW5       30.10S VSB<1/4
AKRON CO       CLEAR     47  41  80 SW8       30.11F
BURLINGTON CO  MOCLDY    44  40  85 W7        30.13R
LIMON CO       CLEAR     38  37  97 NE5       30.17S
$$

...UNOFFICIAL OBSERVATIONS...

CITY           SKY/WX    TMP DP  RH WIND       PRES   REMARKS
GOVE KS          N/A     60  32  34 MISG        N/A
SHARON SPRINGS   N/A     48  46  92 CALM        N/A
TRENTON NEB      N/A     41  32  70 N7          N/A
KIT CARSON CO    N/A     44  40  86 CALM        N/A
YUMA CO          N/A     36  30  80 CALM        N/A
$$



USA.gov is the U.S. government's official web portal to all federal, state and local government web resources and services.